Regional Weather Roundup
Issued by NWS

Home | Current Version | Previous Version | Graphics & Text | Print | Product List | Glossary On
Versions: 1 2 3 4 5 6 7 8 9 10 11 12 13 14 15 16 17 18 19 20 21 22 23 24 25 26 27 28 29 30 31 32 33 34 35 36 37 38 39 40 41 42 43 44 45 46 47 48 49 50
000
ASUS45 KABQ 250601
RWRNM
NEW MEXICO REGIONAL WEATHER ROUNDUP
NATIONAL WEATHER SERVICE ALBUQUERQUE NM
1200 AM MDT TUE APR 25 2017

NOTE: "FAIR" MEANS FEW OR NO CLOUDS BELOW 12,000 FEET AGL WITH NO
       SIGNIFICANT WEATHER OR OBSTRUCTIONS TO VISION.

      THIS PRODUCT IS RELEASED AS TWO VERSIONS.  ONE VERSION NEAR
      THE TOP OF THE HOUR CONTAINING PRELIMINARY DATA FROM ALBUQUERQUE
      AND OTHER STATIONS.  A FINAL VERSION WITH ADDITIONAL DATA IS
      ISSUED ABOUT 10 MINUTES AFTER THE HOUR.

NMZ501-503-504-510>518-250700-
NORTHWEST PLATEAU/NORTHCENTRAL MOUNTAINS

CITY           SKY/WX    TMP DP  RH WIND       PRES   REMARKS
FARMINGTON     FAIR      57  23  26 W13       29.65S
6HR MIN TEMP:  56; 6HR MAX TEMP:  66;

LOS ALAMOS     MOCLDY    56  21  25 SW9G24    29.78F
SANTA FE       MOCLDY    61  22  22 W22G36    29.72S
6HR MIN TEMP:  61; 6HR MAX TEMP:  74;

TAOS             N/A     50  19  29 W12       29.74F
ANGEL FIRE     FAIR      48  21  34 W31G39    29.74F

$$
NMZ402-403-502-505>509-250700-
WESTCENTRAL MOUNTAINS/SOUTHWEST MOUNTAINS

CITY           SKY/WX    TMP DP  RH WIND       PRES   REMARKS
GALLUP         FAIR      56  17  21 SW26G37   29.78S
6HR MIN TEMP:  56; 6HR MAX TEMP:  68;

GRANTS         MOCLDY    58  19  21 W8G20     29.82F
SILVER CITY    FAIR      61  19  19 W15       29.81F

$$
NMZ407-409-411-412-250700-
SOUTHERN DESERTS

CITY           SKY/WX    TMP DP  RH WIND       PRES   REMARKS
DEMING         FAIR      70  15  12 W14       29.77R
6HR MIN TEMP:  70; 6HR MAX TEMP:  84;

LAS CRUCES     FAIR      74  15  11 W15G23    29.77S
ALAMOGORDO     FAIR      75  18  11 W7        29.75R
T OR C         FAIR      68  16  13 NW6       29.73S
6HR MIN TEMP:  68; 6HR MAX TEMP:  84;


$$
NMZ519>523-250700-
CENTRAL VALLEYS/CENTRAL HIGHLANDS

CITY           SKY/WX    TMP DP  RH WIND       PRES   REMARKS
ALBUQUERQUE    MOCLDY    67  18  15 W22G28    29.73F
6HR MIN TEMP:  67; 6HR MAX TEMP:  80;

MORIARTY ARPT  CLOUDY    65  18  17 W3        29.76F
6HR MIN TEMP:  65; 6HR MAX TEMP:  77;

CLINES CORNERS FAIR      59  17  19 W26G46    29.76F
6HR MIN TEMP:  59; 6HR MAX TEMP:  72;

BELEN          CLOUDY    63  16  16 SW7       29.74S
6HR MIN TEMP:  63; 6HR MAX TEMP:  80;

SOCORRO        FAIR      68  15  13 W7        29.72S
6HR MIN TEMP:  67; 6HR MAX TEMP:  81;


$$
NMZ524>526-539-540-250700-
SOUTHCENTRAL MOUNTAINS

CITY           SKY/WX    TMP DP  RH WIND       PRES   REMARKS
RUIDOSO        NOT AVBL

$$
NMZ527>531-250700-
NORTHEAST HIGHLANDS/NORTHEAST PLAINS

CITY           SKY/WX    TMP DP  RH WIND       PRES   REMARKS
LAS VEGAS      FAIR      59  19  21 W29G38    29.66F
6HR MIN TEMP:  57; 6HR MAX TEMP:  71;

RATON          FAIR      55  23  28 W13       29.61F
6HR MIN TEMP:  52; 6HR MAX TEMP:  72;

CLAYTON        FAIR      58  37  45 NW8       29.54S
6HR MIN TEMP:  58; 6HR MAX TEMP:  77;


$$
NMZ532>537-250700-
EASTCENTRAL PLAINS

CITY           SKY/WX    TMP DP  RH WIND       PRES   REMARKS
SANTA ROSA     FAIR      64  19  17 W3        29.60S
TUCUMCARI      FAIR      67  20  16 W12       29.51S
6HR MIN TEMP:  64; 6HR MAX TEMP:  84;

CANNON AFB     FAIR      66  19  16 W14       29.58S
6HR MIN TEMP:  60; 6HR MAX TEMP:  84;

CLOVIS AIRPORT FAIR      63  21  20 SW13      29.58S

$$
NMZ028-029-538-250700-
SOUTHEAST PLAINS

CITY           SKY/WX    TMP DP  RH WIND       PRES   REMARKS
ROSWELL        FAIR      72  20  14 SW16        N/A
6HR MIN TEMP:  70; 6HR MAX TEMP:  87;

ARTESIA        FAIR      77  19  11 W17       29.62S
CARLSBAD       FAIR      82  17   9 W29G36    29.58F
6HR MIN TEMP:  78; 6HR MAX TEMP:  90;

HOBBS          FAIR      64  18  16 SW8       29.63F


$$



USA.gov is the U.S. government's official web portal to all federal, state and local government web resources and services.